Avoca, PA

12:39 AM EDT on October 17, 2017 (GMT -0400)
Wilkes-Barre-Scranton International

Weather History for KAVP - January, 2014

Change the Weather History Date:

Friday, January 24, 2014

  Actual Average Record
Temperature  
Mean Temperature 8 °F 26 °F  
Max Temperature 15 °F 33 °F 62 °F (1967)
Min Temperature 1 °F 18 °F -8 °F (1907)
Degree Days  
Heating Degree Days 57 39  
Month to date heating degree days 1014 935  
Since 1 July heating degree days 3328 3313  
Cooling Degree Days 0 0  
Month to date cooling degree days 0 0  
Year to date cooling degree days 0 0  
Moisture  
Dew Point -3 °F    
Average Humidity 61    
Maximum Humidity 80    
Minimum Humidity 42    
Precipitation  
Precipitation T in 0.08 in 1.11 in (1979)
Month to date precipitation 2.07 1.81  
Year to date precipitation 2.07 1.81  
Sea Level Pressure  
Sea Level Pressure 30.24 in    
Wind  
Wind Speed 11 mph (WSW)    
Max Wind Speed 18 mph    
Max Gust Speed 25 mph    
Visibility 9 miles    
Events Snow    
T = Trace of Precipitation, MM = Missing Value Source: NWS Daily Summary

Daily Weather History Graph

Daily Weather History Graph

Search for Another Location

Airport or City:

Trip Planner

Search our weather history database for the weather conditions in past years. The results will help you decide how hot, cold, wet, or windy it might be!

Date:

Astronomy

Jan. 24, 2014 Rise Set
Actual Time 7:21 AM EST 5:09 PM EST
Civil Twilight 6:51 AM EST 5:39 PM EST
Nautical Twilight 6:17 AM EST 6:12 PM EST
Astronomical Twilight 5:45 AM EST 6:45 PM EST
Moon 12:45 AM EST (1/24) 11:27 AM EST (1/24)
Length of Visible Light 10h 47m
Length of Day
9h 48m
Last Quarter, 45% of the Moon is Illuminated
Jan 24
Last Quarter
Jan 30
New
Feb 6
First Quarter
Feb 14
Full
Feb 22
Last Quarter

Hourly Weather History & Observations

Time (EST) Temp. Windchill Dew Point Humidity Pressure Visibility Wind Dir Wind Speed Gust Speed Precip Events Conditions
12:54 AM 9.0 °F -6.6 °F -2.0 °F 61% 30.30 in 10.0 mi West 12.7 mph - N/A   Overcast
1:16 AM 8.6 °F -5.5 °F -0.4 °F 67% 30.25 in 4.0 mi West 10.4 mph - 0.00 in Snow Light Snow
1:54 AM 8.1 °F -7.0 °F 1.0 °F 73% 30.31 in 3.0 mi West 11.5 mph - 0.00 in Snow Light Snow
2:30 AM 6.8 °F -4.8 °F 1.4 °F 79% 30.26 in 2.0 mi West 6.9 mph - 0.00 in Snow Light Snow
2:54 AM 7.0 °F -5.7 °F 1.9 °F 80% 30.32 in 3.0 mi West 8.1 mph - 0.00 in Snow Light Snow
3:54 AM 6.1 °F -9.5 °F 1.0 °F 80% 30.33 in 3.0 mi West 11.5 mph - 0.00 in Snow Light Snow
4:18 AM 5.0 °F -10.8 °F -0.4 °F 78% 30.27 in 9.0 mi West 11.5 mph - 0.00 in   Mostly Cloudy
4:25 AM 3.2 °F -13.1 °F -0.4 °F 85% 30.27 in 10.0 mi West 11.5 mph 17.3 mph 0.00 in   Scattered Clouds
4:54 AM 3.9 °F -11.3 °F -2.9 °F 73% 30.34 in 10.0 mi West 10.4 mph 17.3 mph 0.00 in   Clear
5:54 AM 3.9 °F -13.7 °F -7.1 °F 60% 30.36 in 10.0 mi West 13.8 mph 21.9 mph N/A   Clear
6:54 AM 3.9 °F -15.0 °F -7.1 °F 60% 30.39 in 10.0 mi West 16.1 mph 21.9 mph N/A   Clear
7:54 AM 1.9 °F -10.6 °F -8.0 °F 63% 30.38 in 10.0 mi WSW 6.9 mph - N/A   Clear
8:54 AM 5.0 °F -10.8 °F -6.0 °F 61% 30.39 in 10.0 mi WSW 11.5 mph 21.9 mph N/A   Clear
9:54 AM 8.1 °F -5.3 °F -5.1 °F 55% 30.38 in 10.0 mi West 9.2 mph - N/A   Clear
10:54 AM 10.0 °F -0.9 °F -5.1 °F 51% 30.36 in 10.0 mi West 6.9 mph - N/A   Clear
11:54 AM 12.9 °F -0.9 °F -4.0 °F 47% 30.32 in 10.0 mi West 11.5 mph 20.7 mph N/A   Clear
12:54 PM 12.9 °F -1.6 °F -2.0 °F 51% 30.27 in 10.0 mi WSW 12.7 mph - N/A   Mostly Cloudy
1:54 PM 14.0 °F -1.4 °F -2.0 °F 49% 30.24 in 10.0 mi WSW 15.0 mph 20.7 mph N/A   Clear
2:54 PM 15.1 °F 0.5 °F -2.0 °F 47% 30.22 in 10.0 mi SW 13.8 mph 21.9 mph N/A   Clear
3:54 PM 14.0 °F -0.8 °F -2.0 °F 49% 30.19 in 10.0 mi WSW 13.8 mph 20.7 mph N/A   Partly Cloudy
4:54 PM 14.0 °F 3.9 °F -2.0 °F 49% 30.17 in 10.0 mi SW 6.9 mph 18.4 mph N/A   Clear
5:54 PM 14.0 °F 2.9 °F -2.9 °F 47% 30.15 in 10.0 mi SW 8.1 mph - N/A   Partly Cloudy
6:54 PM 14.0 °F 2.0 °F -2.0 °F 49% 30.12 in 10.0 mi SSW 9.2 mph - N/A   Overcast
7:54 PM 14.0 °F 3.9 °F -2.9 °F 47% 30.10 in 10.0 mi Variable 6.9 mph - N/A   Mostly Cloudy
8:54 PM 12.9 °F -0.2 °F -2.9 °F 49% 30.05 in 10.0 mi SSW 10.4 mph 21.9 mph N/A   Mostly Cloudy
9:54 PM 14.0 °F 2.9 °F -4.0 °F 45% 30.02 in 10.0 mi South 8.1 mph - N/A   Clear
10:54 PM 15.1 °F 3.3 °F -4.0 °F 43% 29.98 in 10.0 mi SSW 9.2 mph 20.7 mph N/A   Clear
11:54 PM 15.1 °F 3.3 °F -5.1 °F 41% 29.93 in 10.0 mi SSW 9.2 mph 20.7 mph N/A   Clear